[[{"header":{"parameterUnit":"m.s-1","parameterCategory":1,"la1":30.2991,"la2":30.254,"lo1":-89.0895,"lo2":-89.0444,"dy":0.0017,"dx":0.0017,"nx":28,"ny":28,"refTime":"2023-06-25T21:00:00:Z","depth":0,"parameterNumber":2,"parameterNumberName":"U-component_of_WINDS"},"data":[0,0,0,0,0,0,0,0,0,0,0,0,0,0,0,0,0,0,0,0,0,0,0,0,0,0,0,0,0,0,0,0,0,0,0,0,0,0,0,0,0,0,0,0,0,0,0,0,0,0,0,0,0,0,0,0,0,0,4.2603,4.2603,0,4.2636,4.2637,4.2637,4.2553,4.2551,4.2548,4.2545,4.2584,4.2587,4.2591,0,0,0,0,0,0,0,0,0,0,0,0,0,4.2472,4.2474,4.2603,4.2604,4.2604,4.2636,4.2637,4.2637,4.2554,4.2551,4.2547,4.2544,4.2583,4.2587,4.2591,0,0,0,0,0,0,0,0,0,0,0,0,0,4.2519,4.2475,4.2603,4.2566,4.2563,4.2636,4.2637,4.2637,4.2554,4.255,4.2546,4.2543,4.2581,4.2586,4.2591,4.2703,0,0,4.2607,4.261,0,0,0,0,0,0,0,0,4.2517,4.2524,4.2571,4.2569,4.2565,4.2587,4.2604,4.266,4.2555,4.2558,4.2545,4.2541,4.2588,4.2593,4.2608,4.2705,4.2707,4.2608,4.2611,4.2613,4.2615,0,0,0,0,0,0,0,4.2514,4.2522,4.2616,4.2572,4.2568,4.2549,4.2552,4.2615,4.2595,4.2557,4.2551,4.2556,4.2586,4.2603,4.2608,4.2707,4.2608,4.2612,4.2616,4.2618,4.29,4.2904,0,0,0,0,0,0,4.2514,4.252,4.2615,4.2617,4.2531,4.2555,4.2558,4.2584,4.2594,4.2592,4.256,4.2552,4.2596,4.2602,4.2609,4.2741,4.2613,4.2618,4.2621,4.2895,4.2901,4.2905,0,0,0,0,0,0,4.2512,4.2524,4.2614,4.2567,4.2577,4.2561,4.2592,4.2587,4.2603,4.2596,4.2592,4.258,4.2593,4.2602,4.2681,4.2741,4.2621,4.2625,4.289,4.2897,4.2903,4.3006,0,0,0,0,0,0,4.2508,4.2523,4.2564,4.2569,4.258,4.2684,4.2595,4.259,4.2612,4.2603,4.2614,4.2612,4.259,4.2673,4.2686,4.2746,4.2629,4.2885,4.2893,4.2901,4.2997,4.3015,4.3031,0,0,0,0,0,4.2504,4.2593,4.2567,4.2579,4.2631,4.2687,4.2694,4.2666,4.2617,4.2659,4.2655,4.2612,4.2733,4.2682,4.2695,4.2758,4.2881,4.2891,4.29,4.299,4.3012,4.3031,0,0,0,0,0,0,4.2597,4.2593,4.2564,4.2656,4.2673,4.2673,4.2725,4.269,4.2722,4.2712,4.2677,4.2681,4.2767,4.277,4.2714,4.2868,4.2799,4.2812,4.2862,4.2883,4.29,4.2897,4.2634,0,0,0,0,0,4.2628,4.2673,4.2667,4.2749,4.2759,4.2741,4.2765,4.2742,4.2758,4.2765,4.2766,4.2784,4.2827,4.2855,4.2893,4.2998,4.3,4.3048,4.3065,4.3079,4.309,4.3147,4.3168,4.2938,4.2938,4.2937,0,0,4.2693,4.2696,4.2727,4.2768,4.2778,4.2827,4.2747,4.2802,4.2838,4.2774,4.2848,4.285,4.2868,4.2961,4.3001,4.2966,4.3155,4.3091,4.3102,4.3106,4.3159,4.3181,4.32,4.2944,4.2943,4.2942,0,0,4.2836,4.2843,4.2912,4.2924,4.294,4.2927,4.2944,4.295,4.2949,4.3023,4.2975,4.3019,4.3092,4.3107,4.3125,4.3276,4.3238,4.329,4.3377,4.3433,4.3451,4.3467,4.3521,4.3541,4.3301,4.3301,4.3302,0,4.2915,4.2985,4.2952,4.3011,4.3031,4.2974,4.3045,4.3058,4.3087,4.3103,4.3063,4.3154,4.3163,4.3259,4.3296,4.3312,4.3331,4.3288,4.3451,4.3467,4.3481,4.3532,4.3553,4.3308,4.3307,4.3306,4.3306,0,4.3082,4.3131,4.3186,4.3213,4.324,4.3305,4.3283,4.3315,4.329,4.3283,4.336,4.3368,4.3407,4.3429,4.3405,4.3522,4.3499,4.3456,4.3386,4.351,4.3557,4.3577,4.3316,4.3314,4.3312,4.3311,0,0,4.3283,4.3292,4.3313,4.3325,4.334,4.3378,4.3441,4.3479,4.3506,4.3529,4.3581,4.3645,4.3605,4.3625,4.3604,4.3653,4.3773,4.3603,4.3603,4.3635,4.3902,4.3934,4.3957,4.3748,4.3751,4.3754,4.39,0,4.3424,4.353,4.3503,4.3609,4.3656,4.3603,4.3658,4.3674,4.3669,4.3709,4.3704,4.375,4.3693,4.3705,4.3751,4.3748,4.3826,4.3737,4.3797,4.38,4.3794,4.3982,4.4016,4.4154,4.3919,4.3922,4.3924,0,4.3602,4.3631,4.3741,4.3749,4.3767,4.3817,4.385,4.3888,4.3906,4.3899,4.3922,4.3891,4.3955,4.3885,4.3973,4.3913,4.3936,4.3939,4.3944,4.3948,4.3869,4.3992,4.4197,4.4217,4.3953,4.3951,4.3949,0,4.3739,4.3804,4.3879,4.3891,4.3902,4.3938,4.3945,4.3958,4.3983,4.4013,4.4028,4.4066,4.4086,4.4116,4.4097,4.4048,4.4189,4.4117,4.4186,4.4187,4.4218,4.4216,4.443,4.4234,4.4233,4.4233,4.4233,0,4.3899,4.3969,4.394,4.3986,4.4063,4.4033,4.4111,4.4112,4.4124,4.4171,4.4128,4.4173,4.4145,4.4188,4.4174,4.4249,4.4259,4.4256,4.4251,4.426,4.426,4.4274,4.4264,4.4238,4.4237,4.4236,4.4235,0,4.4064,4.4047,4.4125,4.4129,4.4132,4.4189,4.4193,4.4236,4.4229,4.4288,4.43,4.4289,4.4337,4.4321,4.4374,4.4364,4.446,4.4444,4.4454,4.445,4.452,4.4514,4.475,4.4779,4.4565,4.4567,4.4569,0,4.4167,4.4219,4.4229,4.4256,4.4265,4.431,4.4335,4.4308,4.4336,4.4361,4.4402,4.4447,4.4481,4.4561,4.4558,4.4599,4.4582,4.4662,4.4588,4.4595,4.4584,4.4581,4.4586,4.4677,4.468,4.4682,4.4683,0,4.4352,4.4341,4.4378,4.4413,4.4443,4.447,4.4492,4.4518,4.4493,4.4527,4.4575,4.4602,4.4655,4.47,4.4737,4.4745,4.4711,4.4707,4.4725,4.4734,4.4738,4.4737,4.4494,4.4701,4.47,4.4698,4.4697,4.4696,4.4489,4.4533,4.4547,4.459,4.4604,4.4626,4.4667,4.4665,4.4705,4.4745,4.4728,4.4784,4.4802,4.4847,4.4861,4.4905,4.4874,4.4901,4.4907,4.4914,4.4923,4.4731,4.4912,4.4911,4.4911,4.491,4.491,0,4.4671,4.4678,4.4718,4.475,4.4785,4.4749,4.4772,4.4804,4.4853,4.4872,4.4907,4.4963,4.5007,4.5009,4.505,4.5086,4.5071,4.5097,4.5094,4.5097,4.4948,4.4928,4.5108,4.5108,4.5108,4.5108,4.5108,4.5108,4.4771,4.4844,4.4835,4.4916,4.4922,4.4976,4.4993,4.5014,4.5029,4.5093,4.5129,4.5129,4.5142,4.5184,4.5223,4.5223,4.524,4.5273,4.5266,4.5127,4.5107,4.5088,4.5069,4.5277,4.5277,4.5411,4.5412,4.5413]},{"header":{"parameterUnit":"m.s-1","parameterCategory":1,"la1":30.2991,"la2":30.254,"lo1":-89.0895,"lo2":-89.0444,"dy":0.0017,"dx":0.0017,"nx":28,"ny":28,"refTime":"2023-06-25T21:00:00:Z","depth":0,"parameterNumber":3,"parameterNumberName":"V-component_of_WINDS"},"data":[0,0,0,0,0,0,0,0,0,0,0,0,0,0,0,0,0,0,0,0,0,0,0,0,0,0,0,0,0,0,0,0,0,0,0,0,0,0,0,0,0,0,0,0,0,0,0,0,0,0,0,0,0,0,0,0,0,0,-0.122,-0.1221,0,-0.1241,-0.1241,-0.1241,-0.1246,-0.1246,-0.1246,-0.1246,-0.1267,-0.1268,-0.1269,0,0,0,0,0,0,0,0,0,0,0,0,0,-0.1186,-0.1186,-0.122,-0.1221,-0.1221,-0.1241,-0.1241,-0.1241,-0.1246,-0.1246,-0.1246,-0.1246,-0.1267,-0.1268,-0.1269,0,0,0,0,0,0,0,0,0,0,0,0,0,-0.1203,-0.1186,-0.122,-0.1225,-0.1226,-0.1241,-0.1241,-0.1242,-0.1246,-0.1246,-0.1246,-0.1245,-0.1267,-0.1268,-0.1269,-0.128,0,0,-0.1272,-0.1273,0,0,0,0,0,0,0,0,-0.1202,-0.1204,-0.1224,-0.1225,-0.1226,-0.1241,-0.1237,-0.1254,-0.1246,-0.1239,-0.1246,-0.1245,-0.1259,-0.126,-0.1265,-0.1281,-0.1282,-0.1272,-0.1273,-0.1273,-0.1274,0,0,0,0,0,0,0,-0.1201,-0.1203,-0.1228,-0.1225,-0.1226,-0.1227,-0.1229,-0.124,-0.125,-0.1239,-0.124,-0.1242,-0.1259,-0.1264,-0.1265,-0.1282,-0.1272,-0.1273,-0.1274,-0.1274,-0.1309,-0.1309,0,0,0,0,0,0,-0.1198,-0.1202,-0.1228,-0.1229,-0.1213,-0.1228,-0.123,-0.1236,-0.1249,-0.1251,-0.1242,-0.1242,-0.1262,-0.1264,-0.1266,-0.128,-0.1273,-0.1274,-0.1275,-0.1309,-0.1309,-0.1309,0,0,0,0,0,0,-0.1198,-0.1201,-0.1227,-0.1216,-0.1219,-0.1229,-0.1235,-0.1237,-0.1241,-0.1252,-0.1253,-0.1245,-0.1262,-0.1265,-0.1277,-0.1281,-0.1275,-0.1276,-0.1308,-0.1309,-0.1309,-0.1308,0,0,0,0,0,0,-0.1197,-0.12,-0.1204,-0.1216,-0.122,-0.1237,-0.1235,-0.1237,-0.1243,-0.1243,-0.1255,-0.1257,-0.1262,-0.1275,-0.1278,-0.1282,-0.1277,-0.1308,-0.1308,-0.1309,-0.1308,-0.1308,-0.1309,0,0,0,0,0,-0.1195,-0.1203,-0.1205,-0.1208,-0.1225,-0.1237,-0.1239,-0.1245,-0.1243,-0.1248,-0.1254,-0.1256,-0.128,-0.1276,-0.1279,-0.1284,-0.1308,-0.1308,-0.1309,-0.1308,-0.1308,-0.1309,0,0,0,0,0,0,-0.1193,-0.1205,-0.1207,-0.1218,-0.1227,-0.1238,-0.1243,-0.1246,-0.1255,-0.1254,-0.1261,-0.1264,-0.1275,-0.1281,-0.1276,-0.1296,-0.1294,-0.1295,-0.1292,-0.1293,-0.1293,-0.1292,-0.1278,0,0,0,0,0,-0.1193,-0.1202,-0.1212,-0.1222,-0.1226,-0.1234,-0.1239,-0.1243,-0.1252,-0.1255,-0.1263,-0.1272,-0.1281,-0.1287,-0.1296,-0.1309,-0.1311,-0.1314,-0.1314,-0.1315,-0.1316,-0.1323,-0.1324,-0.1311,-0.1311,-0.1311,0,0,-0.1195,-0.1203,-0.1208,-0.1222,-0.1228,-0.1237,-0.1237,-0.1246,-0.1253,-0.1257,-0.1269,-0.1274,-0.1285,-0.1297,-0.1303,-0.1302,-0.132,-0.1316,-0.1316,-0.1317,-0.1324,-0.1325,-0.1326,-0.1312,-0.1312,-0.1312,0,0,-0.1203,-0.1209,-0.1218,-0.1225,-0.1235,-0.124,-0.1243,-0.1253,-0.1257,-0.1269,-0.1272,-0.1281,-0.1297,-0.1304,-0.131,-0.132,-0.1322,-0.1323,-0.1326,-0.1333,-0.1334,-0.1335,-0.1339,-0.134,-0.1324,-0.1324,-0.1324,0,-0.1204,-0.1217,-0.1222,-0.1232,-0.1238,-0.1242,-0.1251,-0.1257,-0.127,-0.1274,-0.1273,-0.1293,-0.13,-0.1314,-0.1317,-0.1321,-0.1324,-0.1322,-0.1333,-0.1334,-0.1335,-0.1339,-0.1341,-0.1324,-0.1324,-0.1324,-0.1324,0,-0.1218,-0.1227,-0.1233,-0.1245,-0.1251,-0.126,-0.1268,-0.1274,-0.1277,-0.1282,-0.1295,-0.1303,-0.1314,-0.1318,-0.1321,-0.1333,-0.1332,-0.1332,-0.133,-0.1337,-0.134,-0.1342,-0.1324,-0.1324,-0.1324,-0.1324,0,0,-0.1224,-0.1239,-0.1241,-0.1247,-0.1258,-0.1266,-0.1275,-0.1286,-0.1291,-0.13,-0.1308,-0.1321,-0.1322,-0.1328,-0.1332,-0.1338,-0.1346,-0.1338,-0.1338,-0.1339,-0.136,-0.136,-0.1362,-0.1348,-0.1348,-0.1348,-0.1359,0,-0.1233,-0.125,-0.1255,-0.1269,-0.1278,-0.1282,-0.129,-0.1298,-0.1304,-0.1312,-0.1318,-0.1328,-0.1327,-0.1331,-0.1337,-0.1344,-0.1351,-0.1343,-0.1356,-0.1356,-0.1353,-0.1363,-0.1363,-0.1373,-0.1361,-0.1361,-0.1361,0,-0.1247,-0.1255,-0.127,-0.1281,-0.1285,-0.1292,-0.1302,-0.131,-0.1319,-0.1323,-0.133,-0.1334,-0.1344,-0.1341,-0.1356,-0.1351,-0.1356,-0.136,-0.1361,-0.1362,-0.1359,-0.1366,-0.1376,-0.1378,-0.1363,-0.1363,-0.1363,0,-0.125,-0.1266,-0.1277,-0.1281,-0.1294,-0.1299,-0.1304,-0.1313,-0.132,-0.1329,-0.1333,-0.1343,-0.1349,-0.1357,-0.1363,-0.136,-0.1377,-0.1375,-0.138,-0.138,-0.1384,-0.1384,-0.1396,-0.1387,-0.1387,-0.1387,-0.1387,0,-0.126,-0.1269,-0.1278,-0.1285,-0.1295,-0.1302,-0.1312,-0.1317,-0.1325,-0.1334,-0.1338,-0.1345,-0.1353,-0.1362,-0.1367,-0.1378,-0.138,-0.1384,-0.1385,-0.1384,-0.1383,-0.1387,-0.1387,-0.1387,-0.1387,-0.1387,-0.1387,0,-0.1266,-0.1273,-0.1285,-0.1296,-0.1299,-0.1306,-0.1315,-0.1322,-0.1327,-0.1338,-0.1341,-0.1349,-0.136,-0.1367,-0.138,-0.1384,-0.1396,-0.1397,-0.1393,-0.1393,-0.1399,-0.1398,-0.1415,-0.1417,-0.1406,-0.1406,-0.1406,0,-0.1272,-0.1279,-0.1291,-0.1296,-0.1302,-0.1311,-0.1317,-0.1323,-0.133,-0.1341,-0.1347,-0.1357,-0.1366,-0.1383,-0.1391,-0.1401,-0.1402,-0.1407,-0.1404,-0.1402,-0.1403,-0.1402,-0.1403,-0.1408,-0.1408,-0.1408,-0.1408,0,-0.1282,-0.1285,-0.1294,-0.1304,-0.1311,-0.1319,-0.1328,-0.1332,-0.134,-0.1347,-0.1358,-0.1364,-0.1378,-0.1389,-0.14,-0.1406,-0.1409,-0.1409,-0.1411,-0.141,-0.1407,-0.1409,-0.1395,-0.1409,-0.1409,-0.1409,-0.1409,-0.1409,-0.1289,-0.1295,-0.1304,-0.1314,-0.1321,-0.1328,-0.1335,-0.1342,-0.1351,-0.1362,-0.1365,-0.1377,-0.1386,-0.1401,-0.1407,-0.1416,-0.1416,-0.1419,-0.1419,-0.142,-0.142,-0.1405,-0.1418,-0.1418,-0.1418,-0.1418,-0.1418,0,-0.1299,-0.1305,-0.1314,-0.1326,-0.1333,-0.1335,-0.1344,-0.135,-0.136,-0.1368,-0.1377,-0.1389,-0.14,-0.1408,-0.1419,-0.1425,-0.1426,-0.1427,-0.1427,-0.1429,-0.142,-0.1417,-0.1426,-0.1426,-0.1426,-0.1426,-0.1426,-0.1426,-0.1306,-0.1317,-0.1321,-0.1336,-0.1342,-0.1352,-0.1358,-0.1365,-0.1372,-0.1385,-0.1394,-0.1399,-0.1408,-0.1419,-0.1429,-0.1431,-0.1435,-0.1436,-0.1439,-0.143,-0.1429,-0.1428,-0.1426,-0.1437,-0.1437,-0.1447,-0.1447,-0.1447]}]]